EW9187 Weather Reports


Display with metric or nautical units.
time (UTC)temp
F
wind
direction
speed
MPH
gust
MPH
rain 1hr
in
rain 24hr
in
rain mn
in
humidity
%
barometer
mb
20260505035512 53 0.0 0.0 0.00 0.00 0.00 85 966.6
20260505035020 53 0.0 0.0 0.00 0.00 0.00 85 966.6
20260505034515 53 178 0.0 0.0 0.00 0.00 0.00 83 966.2
20260505034051 54 0.0 0.0 0.00 0.00 0.00 83 966.7
20260505033516 54 178 0.0 0.0 0.00 0.00 0.00 83 966.2
20260505033015 54 178 0.0 0.0 0.00 0.00 0.00 82 966.2
20260505032509 54 0.0 0.0 0.00 0.00 0.00 81 966.6
20260505032019 54 178 0.0 0.0 0.00 0.00 0.00 82 966.3
20260505031516 55 178 0.0 0.0 0.00 0.00 0.00 81 966.3
20260505031018 55 0.0 0.0 0.00 0.00 0.00 80 966.7
20260505030015 55 178 0.0 0.0 0.00 0.00 0.00 80 966.4
20260505025548 55 0.0 0.0 0.00 0.00 0.00 79 967.0
20260505024516 56 178 0.0 0.0 0.00 0.00 0.00 78 966.3
20260505024056 56 178 0.0 0.0 0.00 0.00 0.00 77 966.3
20260505023019 57 0.0 0.0 0.00 0.00 0.00 77 966.5
20260505022515 57 178 0.0 0.0 0.00 0.00 0.00 76 966.1
20260505022033 57 0.0 0.0 0.00 0.00 0.00 76 966.4
20260505021126 57 0.0 0.0 0.00 0.00 0.00 75 966.2
20260505020517 58 0.0 0.0 0.00 0.00 0.00 75 966.3
20260505015516 58 178 0.0 0.0 0.00 0.00 0.00 74 966.0
20260505014636 58 0.0 0.0 0.00 0.00 0.00 73 966.2
20260505014015 59 178 0.0 0.0 0.00 0.00 0.00 72 965.9
20260505013027 59 0.0 0.0 0.00 0.00 0.00 71 965.9
20260505012017 60 178 0.0 0.0 0.00 0.00 0.00 70 965.9
20260505011528 60 0.0 0.0 0.00 0.00 0.00 69 965.9
20260505011015 61 178 0.0 0.0 0.00 0.00 0.00 69 965.8
20260505010618 61 0.0 0.0 0.00 0.00 0.00 68 966.0
20260505010035 61 178 0.0 0.0 0.00 0.00 0.00 67 965.9
20260505005515 62 178 0.0 0.0 0.00 0.00 0.00 67 965.9
20260505005016 62 178 0.0 0.0 0.00 0.00 0.00 66 965.8
20260505004515 63 178 0.0 0.0 0.00 0.00 0.00 66 965.8
20260505004015 63 178 0.0 0.0 0.00 0.00 0.00 64 965.7
20260505003015 64 178 0.0 0.0 0.00 0.00 0.00 62 965.7
20260505002517 65 178 0.0 0.0 0.00 0.00 0.00 60 965.7
20260505002052 66 0.0 0.0 0.00 0.00 0.00 60 965.7
20260505001515 67 178 0.0 0.0 0.00 0.00 0.00 58 965.6
20260505001036 67 178 0.0 0.0 0.00 0.00 0.00 58 965.6
20260505000520 68 178 0.0 0.0 0.00 0.00 0.00 57 965.8
20260505000035 69 178 0.0 0.0 0.00 0.00 0.00 54 965.6
20260504235502 69 0.0 0.0 0.00 0.00 0.00 52 965.6
20260504235015 70 185 0.0 2.0 0.00 0.00 0.00 51 965.8
20260504234044 70 225 0.0 1.0 0.00 0.00 0.00 50 965.7
20260504233518 70 170 0.0 1.0 0.00 0.00 0.00 49 965.9
20260504232515 71 169 0.0 0.0 0.00 0.00 0.00 48 965.8
20260504232034 72 0.0 0.0 0.00 0.00 0.00 46 965.6
20260504230515 73 170 0.0 0.0 0.00 0.00 0.00 44 965.8
20260504225515 73 137 0.0 2.0 0.00 0.00 0.00 42 965.9
20260504224515 74 224 0.0 2.0 0.00 0.00 0.00 39 966.0
20260504223610 74 225 0.0 1.0 0.00 0.00 0.00 37 965.8
20260504223015 75 222 0.0 1.0 0.00 0.00 0.00 35 966.0
20260504222016 76 223 0.0 0.0 0.00 0.00 0.00 34 966.0
20260504221348 76 225 0.0 2.0 0.00 0.00 0.00 36 965.9
20260504220015 76 221 0.0 2.0 0.00 0.00 0.00 39 966.0
20260504215124 76 225 0.0 1.0 0.00 0.00 0.00 40 965.9
20260504214515 77 226 0.0 0.0 0.00 0.00 0.00 39 965.9
20260504214015 78 217 0.0 2.0 0.00 0.00 0.00 38 966.0
20260504213112 78 338 0.0 3.0 0.00 0.00 0.00 39 965.9
20260504212555 78 254 0.0 1.0 0.00 0.00 0.00 40 966.1
20260504212048 78 225 1.0 1.0 0.00 0.00 0.00 38 965.8
20260504211015 78 97 0.0 5.0 0.00 0.00 0.00 38 965.8
20260504210015 77 215 1.0 1.0 0.00 0.00 0.00 41 965.9
20260504205137 78 225 1.0 3.0 0.00 0.00 0.00 42 966.1
20260504204555 78 249 0.0 2.0 0.00 0.00 0.00 44 966.0
20260504203515 78 230 0.0 2.0 0.00 0.00 0.00 42 966.1
20260504202515 78 223 1.0 2.0 0.00 0.00 0.00 44 966.2
20260504201528 78 225 0.0 1.0 0.00 0.00 0.00 45 966.2
20260504201015 78 215 0.0 1.0 0.00 0.00 0.00 44 966.2
20260504200029 78 225 0.0 2.0 0.00 0.00 0.00 42 966.4
20260504195515 78 210 1.0 2.0 0.00 0.00 0.00 42 966.5
20260504195023 77 45 1.0 2.0 0.00 0.00 0.00 45 966.7
20260504194514 77 84 0.0 1.0 0.00 0.00 0.00 43 966.7
20260504194015 77 281 0.0 1.0 0.00 0.00 0.00 42 966.7
20260504193013 78 45 1.0 4.0 0.00 0.00 0.00 45 967.0
20260504192345 78 225 0.0 2.0 0.00 0.00 0.00 38 967.0
20260504191521 77 225 0.0 1.0 0.00 0.00 0.00 38 967.2
20260504190514 78 230 0.0 1.0 0.00 0.00 0.00 38 967.3
20260504190015 78 67 1.0 1.0 0.00 0.00 0.00 38 967.3
20260504185514 77 45 1.0 3.0 0.00 0.00 0.00 40 967.5
20260504184514 78 236 0.0 0.0 0.00 0.00 0.00 42 967.5
20260504184121 77 68 2.0 6.0 0.00 0.00 0.00 40 967.5
20260504183003 78 225 1.0 4.0 0.00 0.00 0.00 39 967.8
20260504182514 78 284 0.0 4.0 0.00 0.00 0.00 42 967.7
20260504181549 78 68 1.0 4.0 0.00 0.00 0.00 47 968.0
20260504181015 78 308 1.0 3.0 0.00 0.00 0.00 42 968.0
20260504180003 78 68 1.0 3.0 0.00 0.00 0.00 42 968.3
20260504175016 77 297 0.0 1.0 0.00 0.00 0.00 43 968.3
20260504174515 77 212 0.0 0.0 0.00 0.00 0.00 43 968.1
20260504174021 77 225 0.0 1.0 0.00 0.00 0.00 44 968.5
20260504173514 78 68 1.0 2.0 0.00 0.00 0.00 46 968.3
20260504173011 78 45 1.0 3.0 0.00 0.00 0.00 45 968.6
20260504172514 79 316 1.0 3.0 0.00 0.00 0.00 41 968.5
20260504172003 78 225 0.0 3.0 0.00 0.00 0.00 45 968.7
20260504171516 78 224 0.0 1.0 0.00 0.00 0.00 43 968.6
20260504171015 79 226 0.0 1.0 0.00 0.00 0.00 42 968.9
20260504170525 79 23 0.0 1.0 0.00 0.00 0.00 43 969.0
20260504151018 74 223 0.0 1.0 0.00 0.00 0.00 50 969.4
20260504141016 68 222 0.0 2.0 0.00 0.00 0.00 61 969.9
20260504130516 61 238 0.0 0.0 0.00 0.00 0.00 65 969.9
20260504110525 41 0.0 0.0 0.00 0.00 0.00 95 969.0
20260504100535 41 238 0.0 0.0 0.00 0.00 0.00 94 968.9
20260504081611 42 0.0 0.0 0.00 0.00 0.00 94 969.3
20260504080516 42 238 0.0 0.0 0.00 0.00 0.00 94 969.1
20260504070128 43 0.0 0.0 0.00 0.00 0.00 93 969.6
20260504050632 45 0.0 0.0 0.00 0.00 0.00 90 970.3
20260504050116 46 0.0 0.0 0.00 0.00 0.00 90 970.3
20260504045515 46 238 0.0 0.0 0.00 0.00 0.00 90 970.0
20260504045023 46 0.0 0.0 0.00 0.00 0.00 90 970.3
20260504044024 46 0.0 0.0 0.00 0.00 0.00 90 970.3
20260504043629 46 0.0 0.0 0.00 0.00 0.00 89 970.5
20260504043016 46 238 0.0 0.0 0.00 0.00 0.00 88 970.2
20260504042116 46 0.0 0.0 0.00 0.00 0.00 88 970.5
20260504041507 47 0.0 0.0 0.00 0.00 0.00 88 970.6
20260504041050 47 0.0 0.0 0.00 0.00 0.00 88 970.5
20260504040515 47 238 0.0 0.0 0.00 0.00 0.00 87 970.4
20260504040014 47 0.0 0.0 0.00 0.00 0.00 87 970.7